| time (UTC) | temp F | wind direction | speed knots | gust knots | rain 1hr in | rain 24hr in | rain mn in | humidity % | barometer mb |
| 20260503053425 | 55 | 0.0 | 0.0 | 0.00 | 0.00 | 0.00 | 76 | 1019.0 | |
| 20260503052437 | 54 | 0.0 | 0.0 | 0.00 | 0.00 | 0.00 | 77 | 1019.0 | |
| 20260503051505 | 54 | 0.0 | 0.0 | 0.00 | 0.00 | 0.00 | 78 | 1019.0 | |
| 20260503050418 | 53 | 0.0 | 0.0 | 0.00 | 0.00 | 0.00 | 80 | 1019.1 | |
| 20260503045445 | 52 | 227 | 0.9 | 1.7 | 0.00 | 0.00 | 0.00 | 80 | 1019.0 |
| 20260503044417 | 52 | 227 | 0.0 | 0.9 | 0.00 | 0.00 | 0.00 | 80 | 1018.7 |
| 20260503043425 | 52 | 0.0 | 0.0 | 0.00 | 0.00 | 0.00 | 81 | 1018.8 | |
| 20260503042417 | 51 | 0.0 | 0.0 | 0.00 | 0.00 | 0.00 | 82 | 1018.9 | |
| 20260503041425 | 50 | 0.0 | 0.0 | 0.00 | 0.00 | 0.00 | 83 | 1018.8 | |
| 20260503040417 | 49 | 182 | 0.9 | 0.9 | 0.00 | 0.00 | 0.00 | 84 | 1018.7 |
| 20260503035424 | 50 | 0.0 | 0.0 | 0.00 | 0.00 | 0.00 | 83 | 1018.8 | |
| 20260503034418 | 50 | 0.0 | 0.0 | 0.00 | 0.00 | 0.00 | 83 | 1018.9 | |
| 20260503033425 | 50 | 0.0 | 0.0 | 0.00 | 0.00 | 0.00 | 83 | 1018.8 | |
| 20260503032417 | 49 | 0.0 | 0.0 | 0.00 | 0.00 | 0.00 | 83 | 1018.7 | |
| 20260503031426 | 50 | 0.0 | 0.0 | 0.00 | 0.00 | 0.00 | 82 | 1018.7 | |
| 20260503030417 | 50 | 0.0 | 0.0 | 0.00 | 0.00 | 0.00 | 81 | 1018.9 | |
| 20260503025425 | 51 | 0.0 | 0.0 | 0.00 | 0.00 | 0.00 | 80 | 1018.9 | |
| 20260503024417 | 51 | 0.0 | 0.0 | 0.00 | 0.00 | 0.00 | 79 | 1019.0 | |
| 20260503023425 | 51 | 0.0 | 0.0 | 0.00 | 0.00 | 0.00 | 79 | 1019.0 | |
| 20260503022417 | 52 | 0.0 | 0.0 | 0.00 | 0.00 | 0.00 | 76 | 1019.0 | |
| 20260503021426 | 53 | 0.0 | 0.0 | 0.00 | 0.00 | 0.00 | 75 | 1019.2 | |
| 20260503020417 | 53 | 0.0 | 0.0 | 0.00 | 0.00 | 0.00 | 74 | 1019.0 | |
| 20260503015445 | 54 | 0.0 | 0.0 | 0.00 | 0.00 | 0.00 | 72 | 1019.0 | |
| 20260503014457 | 54 | 0.0 | 0.0 | 0.00 | 0.00 | 0.00 | 73 | 1019.1 | |
| 20260503013425 | 54 | 0.0 | 0.0 | 0.00 | 0.00 | 0.00 | 72 | 1019.2 | |
| 20260503012417 | 54 | 0.0 | 0.0 | 0.00 | 0.00 | 0.00 | 72 | 1019.2 | |
| 20260503011425 | 54 | 0.0 | 0.0 | 0.00 | 0.00 | 0.00 | 74 | 1019.2 | |
| 20260503010417 | 53 | 0.0 | 0.0 | 0.00 | 0.00 | 0.00 | 75 | 1019.2 | |
| 20260503005426 | 53 | 0.0 | 0.0 | 0.00 | 0.00 | 0.00 | 75 | 1019.4 | |
| 20260503004437 | 52 | 0.0 | 0.0 | 0.00 | 0.00 | 0.00 | 75 | 1019.3 | |
| 20260503003425 | 54 | 0.0 | 0.0 | 0.00 | 0.00 | 0.00 | 73 | 1019.4 | |
| 20260503002417 | 56 | 0.0 | 0.0 | 0.00 | 0.00 | 0.00 | 67 | 1019.4 | |
| 20260503001425 | 57 | 180 | 0.9 | 0.9 | 0.00 | 0.00 | 0.00 | 65 | 1019.5 |
| 20260503000417 | 57 | 183 | 0.0 | 0.9 | 0.00 | 0.00 | 0.00 | 65 | 1019.6 |
| 20260502235529 | 57 | 183 | 0.0 | 0.9 | 0.00 | 0.00 | 0.00 | 64 | 1019.5 |
| 20260502234521 | 58 | 184 | 0.0 | 0.9 | 0.00 | 0.00 | 0.00 | 63 | 1019.8 |
| 20260502233530 | 58 | 184 | 0.9 | 0.9 | 0.00 | 0.00 | 0.00 | 61 | 1019.7 |
| 20260502232522 | 59 | 186 | 0.9 | 0.9 | 0.00 | 0.00 | 0.00 | 61 | 1019.8 |
| 20260502231529 | 58 | 197 | 0.0 | 0.9 | 0.00 | 0.00 | 0.00 | 64 | 1019.9 |
| 20260502230522 | 58 | 0.0 | 0.0 | 0.00 | 0.00 | 0.00 | 62 | 1020.0 | |
| 20260502225529 | 59 | 197 | 0.9 | 0.9 | 0.00 | 0.00 | 0.00 | 60 | 1020.0 |
| 20260502224521 | 59 | 194 | 0.9 | 1.7 | 0.00 | 0.00 | 0.00 | 60 | 1020.1 |
| 20260502223530 | 60 | 189 | 0.9 | 0.9 | 0.00 | 0.00 | 0.00 | 60 | 1020.3 |
| 20260502222522 | 60 | 185 | 0.9 | 1.7 | 0.00 | 0.00 | 0.00 | 59 | 1020.2 |
| 20260502221530 | 60 | 154 | 1.7 | 2.6 | 0.00 | 0.00 | 0.00 | 59 | 1020.2 |
| 20260502220522 | 61 | 182 | 1.7 | 1.7 | 0.00 | 0.00 | 0.00 | 59 | 1020.3 |
| 20260502215529 | 61 | 169 | 1.7 | 1.7 | 0.00 | 0.00 | 0.00 | 59 | 1020.3 |
| 20260502214541 | 61 | 171 | 0.9 | 1.7 | 0.00 | 0.00 | 0.00 | 59 | 1020.3 |
| 20260502213530 | 62 | 179 | 0.9 | 1.7 | 0.00 | 0.00 | 0.00 | 57 | 1020.3 |
| 20260502212522 | 62 | 176 | 0.9 | 1.7 | 0.00 | 0.00 | 0.00 | 56 | 1020.3 |
| 20260502211530 | 62 | 178 | 0.9 | 0.9 | 0.00 | 0.00 | 0.00 | 57 | 1020.3 |
| 20260502210542 | 62 | 178 | 0.9 | 0.9 | 0.00 | 0.00 | 0.00 | 58 | 1020.3 |
| 20260502205529 | 62 | 179 | 0.9 | 0.9 | 0.00 | 0.00 | 0.00 | 59 | 1020.4 |
| 20260502204521 | 62 | 177 | 0.9 | 0.9 | 0.00 | 0.00 | 0.00 | 59 | 1020.4 |
| 20260502203530 | 62 | 178 | 0.0 | 0.9 | 0.00 | 0.00 | 0.00 | 59 | 1020.5 |
| 20260502202522 | 63 | 175 | 0.0 | 0.9 | 0.00 | 0.00 | 0.00 | 57 | 1020.4 |
| 20260502201530 | 64 | 174 | 0.0 | 0.9 | 0.00 | 0.00 | 0.00 | 54 | 1020.5 |
| 20260502200521 | 64 | 174 | 0.9 | 0.9 | 0.00 | 0.00 | 0.00 | 54 | 1020.6 |
| 20260502195529 | 66 | 102 | 2.6 | 2.6 | 0.00 | 0.00 | 0.00 | 53 | 1020.5 |
| 20260502194521 | 66 | 202 | 0.0 | 0.9 | 0.00 | 0.00 | 0.00 | 51 | 1020.4 |
| 20260502193550 | 66 | 202 | 0.9 | 0.9 | 0.00 | 0.00 | 0.00 | 50 | 1020.4 |
| 20260502192602 | 66 | 202 | 0.0 | 0.9 | 0.00 | 0.00 | 0.00 | 50 | 1020.5 |
| 20260502191530 | 66 | 202 | 0.0 | 0.9 | 0.00 | 0.00 | 0.00 | 50 | 1020.3 |
| 20260502190522 | 67 | 202 | 0.0 | 0.9 | 0.00 | 0.00 | 0.00 | 49 | 1020.4 |
| 20260502185530 | 67 | 0.0 | 0.0 | 0.00 | 0.00 | 0.00 | 48 | 1020.4 | |
| 20260502184522 | 68 | 202 | 0.0 | 0.9 | 0.00 | 0.00 | 0.00 | 47 | 1020.3 |
| 20260502183530 | 68 | 203 | 0.0 | 0.9 | 0.00 | 0.00 | 0.00 | 47 | 1020.2 |
| 20260502182522 | 68 | 205 | 0.0 | 0.9 | 0.00 | 0.00 | 0.00 | 47 | 1020.3 |
| 20260502181530 | 69 | 211 | 1.7 | 2.6 | 0.00 | 0.00 | 0.00 | 45 | 1020.3 |
| 20260502180521 | 70 | 220 | 1.7 | 2.6 | 0.00 | 0.00 | 0.00 | 42 | 1020.1 |
| 20260502163530 | 74 | 175 | 2.6 | 3.5 | 0.00 | 0.00 | 0.00 | 36 | 1020.5 |
| 20260502162522 | 74 | 203 | 2.6 | 5.2 | 0.00 | 0.00 | 0.00 | 37 | 1020.4 |
| 20260502161550 | 76 | 185 | 2.6 | 5.2 | 0.00 | 0.00 | 0.00 | 35 | 1020.6 |
| 20260502160522 | 75 | 192 | 2.6 | 3.5 | 0.00 | 0.00 | 0.00 | 35 | 1020.7 |
| 20260502151546 | 75 | 194 | 0.9 | 1.7 | 0.00 | 0.00 | 0.00 | 34 | 1021.0 |
| 20260502150522 | 75 | 205 | 3.5 | 6.1 | 0.00 | 0.00 | 0.00 | 34 | 1021.2 |
| 20260502130522 | 75 | 171 | 2.6 | 3.5 | 0.00 | 0.00 | 0.00 | 34 | 1022.7 |
| 20260502123530 | 74 | 198 | 1.7 | 2.6 | 0.00 | 0.00 | 0.00 | 34 | 1023.0 |
| 20260502122522 | 73 | 91 | 1.7 | 1.7 | 0.00 | 0.00 | 0.00 | 34 | 1023.1 |
| 20260502121530 | 74 | 187 | 1.7 | 3.5 | 0.00 | 0.00 | 0.00 | 35 | 1023.2 |
| 20260502120522 | 74 | 219 | 3.5 | 7.8 | 0.00 | 0.00 | 0.00 | 33 | 1023.4 |
| 20260502115530 | 73 | 222 | 3.5 | 7.8 | 0.00 | 0.00 | 0.00 | 34 | 1023.5 |
| 20260502114522 | 73 | 204 | 4.3 | 7.0 | 0.00 | 0.00 | 0.00 | 34 | 1023.6 |
| 20260502113550 | 73 | 173 | 0.9 | 1.7 | 0.00 | 0.00 | 0.00 | 33 | 1023.7 |
| 20260502112522 | 74 | 213 | 3.5 | 6.1 | 0.00 | 0.00 | 0.00 | 33 | 1023.9 |
| 20260502111550 | 76 | 33 | 1.7 | 1.7 | 0.00 | 0.00 | 0.00 | 33 | 1024.0 |
| 20260502110522 | 74 | 300 | 1.7 | 2.6 | 0.00 | 0.00 | 0.00 | 34 | 1024.3 |
| 20260502105530 | 76 | 293 | 0.9 | 1.7 | 0.00 | 0.00 | 0.00 | 33 | 1024.2 |
| 20260502104522 | 76 | 35 | 1.7 | 2.6 | 0.00 | 0.00 | 0.00 | 32 | 1024.5 |
| 20260502103531 | 74 | 248 | 1.7 | 2.6 | 0.00 | 0.00 | 0.00 | 35 | 1024.5 |
| 20260502102522 | 74 | 199 | 0.9 | 1.7 | 0.00 | 0.00 | 0.00 | 35 | 1024.6 |
| 20260502100522 | 75 | 146 | 0.9 | 1.7 | 0.00 | 0.00 | 0.00 | 33 | 1025.0 |
| 20260502091531 | 71 | 244 | 0.9 | 1.7 | 0.00 | 0.00 | 0.00 | 36 | 1025.3 |
| 20260502090522 | 72 | 298 | 0.9 | 1.7 | 0.00 | 0.00 | 0.00 | 40 | 1025.3 |
| 20260502061619 | 58 | 0.0 | 0.0 | 0.00 | 0.00 | 0.00 | 63 | 1026.0 | |
| 20260502060330 | 57 | 302 | 0.9 | 1.7 | 0.00 | 0.00 | 0.00 | 67 | 1026.0 |
| 20260502055322 | 57 | 244 | 0.0 | 0.9 | 0.00 | 0.00 | 0.00 | 68 | 1026.0 |
| 20260502054330 | 55 | 243 | 0.0 | 0.9 | 0.00 | 0.00 | 0.00 | 66 | 1026.1 |